This demonstration page uses our WeatherBlox Daily Observations layout. Learn more.

Left ArrowRight Arrow

39.29038, -76.61219

Hourly Observations for August 28, 2015

Temp ( °F °C ) Dew Point ( °F °C ) Humidity (%) Winds ( mph kmh ) Pressure ( in mb ) Visibility ( mi km ) Precip ( " mm )
12:54 am 00:54 undefined 71 21.7 57 13.9 61 61 undefined N/A 30.16 1021 N/A 0.00 0.00
1:54 am 01:54 undefined 70 21.1 57 13.9 64 64 undefined N/A 30.16 1021 N/A 0.00 0.00
2:54 am 02:54 undefined 68 20 57 13.9 68 68 undefined N/A 30.15 1021 N/A 0.00 0.00
3:54 am 03:54 undefined 68 20 57 13.9 68 68 undefined N/A 30.15 1021 N/A 0.00 0.00
5:54 am 05:54 undefined 65 18.3 56 13.3 73 73 undefined N/A 30.16 1021 N/A 0.00 0.00
6:54 am 06:54 undefined 66 18.9 56 13.3 70 70 undefined N/A 30.18 1022 N/A 0.00 0.00
7:54 am 07:54 undefined 69 20.6 56 13.3 63 63 undefined N/A 30.19 1022 N/A 0.00 0.00
8:54 am 08:54 undefined 72 22.2 55 12.8 55 55 undefined N/A 30.20 1023 N/A 0.00 0.00
9:54 am 09:54 undefined 74 23.3 56 13.3 54 54 undefined N/A 30.22 1023 N/A 0.00 0.00
10:54 am 10:54 undefined 76 24.4 56 13.3 50 50 undefined N/A 30.22 1023 N/A 0.00 0.00
11:54 am 11:54 undefined 79 26.1 56 13.3 45 45 undefined N/A 30.21 1023 N/A 0.00 0.00
12:54 pm 12:54 undefined 79 26.1 57 13.9 47 47 undefined N/A 30.19 1023 N/A 0.00 0.00
1:54 pm 13:54 undefined 79 26.1 57 13.9 47 47 undefined N/A 30.18 1022 N/A 0.00 0.00
2:54 pm 14:54 undefined 81 27.2 55 12.8 41 41 undefined N/A 30.17 1022 N/A 0.00 0.00
3:54 pm 15:54 undefined 80 26.7 57 13.9 45 45 undefined N/A 30.15 1021 N/A 0.00 0.00
5:54 pm 17:54 undefined 79 26.1 58 14.4 49 49 undefined N/A 30.15 1021 N/A 0.00 0.00
6:54 pm 18:54 undefined 78 25.6 57 13.9 48 48 undefined N/A 30.14 1021 N/A 0.00 0.00
7:54 pm 19:54 undefined 77 25 58 14.4 52 52 undefined N/A 30.15 1021 N/A 0.00 0.00
8:54 pm 20:54 undefined 76 24.4 57 13.9 52 52 undefined N/A 30.18 1022 N/A 0.00 0.00
9:54 pm 21:54 undefined 75 23.9 57 13.9 54 54 undefined N/A 30.19 1022 N/A 0.00 0.00
10:54 pm 22:54 undefined 75 23.9 57 13.9 54 54 undefined N/A 30.20 1023 N/A 0.00 0.00
11:54 pm 23:54 undefined 74 23.3 58 14.4 57 57 undefined N/A 30.20 1023 N/A 0.00 0.00

Powered by AerisWeather